Time,TemperatureF,DewpointF,PressureIn,WindDirection,WindDirectionDegrees,WindSpeedMPH,WindSpeedGustMPH,Humidity,HourlyPrecipIn,Conditions,Clouds,dailyrainin,SoftwareType,DateUTC
2013-09-07 00:01:00,64.4,49.3,29.83,WNW,295,0.0,0.0,58,0.00,,---,0.00,VWS V14.01,2013-09-07 07:01:00,
2013-09-07 00:06:00,64.2,48.7,29.83,WNW,295,0.0,0.0,57,0.00,,---,0.00,VWS V14.01,2013-09-07 07:06:00,
2013-09-07 00:11:00,64.0,48.5,29.83,WNW,295,0.0,0.0,57,0.00,,---,0.00,VWS V14.01,2013-09-07 07:11:00,
2013-09-07 00:16:00,63.8,48.3,29.83,WNW,295,0.0,0.0,57,0.00,,---,0.00,VWS V14.01,2013-09-07 07:16:00,
2013-09-07 00:21:00,63.6,48.6,29.83,WNW,295,0.0,0.0,58,0.00,,---,0.00,VWS V14.01,2013-09-07 07:21:00,
2013-09-07 00:26:00,63.3,48.3,29.83,WNW,295,0.0,0.0,58,0.00,,---,0.00,VWS V14.01,2013-09-07 07:26:00,
2013-09-07 00:31:00,63.1,48.6,29.83,WNW,295,0.0,0.0,59,0.00,,---,0.00,VWS V14.01,2013-09-07 07:31:00,
2013-09-07 00:36:00,62.9,48.4,29.83,WNW,295,0.0,1.0,59,0.00,,---,0.00,VWS V14.01,2013-09-07 07:36:00,
2013-09-07 00:41:00,62.6,48.5,29.83,WNW,295,0.0,1.0,60,0.00,,---,0.00,VWS V14.01,2013-09-07 07:41:00,
2013-09-07 00:46:00,62.4,48.3,29.83,WNW,295,0.0,0.0,60,0.00,,---,0.00,VWS V14.01,2013-09-07 07:46:00,
2013-09-07 00:51:00,62.2,48.2,29.83,WNW,295,0.0,0.0,60,0.00,,---,0.00,VWS V14.01,2013-09-07 07:51:00,
2013-09-07 00:56:00,62.1,49.4,29.83,WNW,295,0.0,0.0,63,0.00,,---,0.00,VWS V14.01,2013-09-07 07:56:00,
2013-09-07 01:01:00,61.8,47.8,29.84,WNW,295,0.0,0.0,60,0.00,,---,0.00,VWS V14.01,2013-09-07 08:01:00,
2013-09-07 01:06:00,61.7,48.1,29.83,WNW,295,0.0,0.0,61,0.00,,---,0.00,VWS V14.01,2013-09-07 08:06:00,
2013-09-07 01:11:00,61.5,47.9,29.83,WNW,295,0.0,0.0,61,0.00,,---,0.00,VWS V14.01,2013-09-07 08:11:00,
2013-09-07 01:16:00,61.3,48.6,29.83,WNW,295,0.0,0.0,63,0.00,,---,0.00,VWS V14.01,2013-09-07 08:16:00,
2013-09-07 01:21:00,61.1,48.4,29.83,WNW,295,0.0,0.0,63,0.00,,---,0.00,VWS V14.01,2013-09-07 08:21:00,
2013-09-07 01:26:00,60.9,48.2,29.83,WNW,295,0.0,0.0,63,0.00,,---,0.00,VWS V14.01,2013-09-07 08:26:00,
2013-09-07 01:30:00,60.8,48.1,29.83,WNW,295,0.0,0.0,63,0.00,,---,0.00,VWS V14.01,2013-09-07 08:30:00,
2013-09-07 01:35:00,60.6,47.5,29.83,WNW,295,0.0,0.0,62,0.00,,---,0.00,VWS V14.01,2013-09-07 08:35:00,
2013-09-07 01:40:00,60.5,47.9,29.83,WNW,295,0.0,0.0,63,0.00,,---,0.00,VWS V14.01,2013-09-07 08:40:00,
2013-09-07 01:45:00,60.5,48.7,29.83,WNW,295,0.0,0.0,65,0.00,,---,0.00,VWS V14.01,2013-09-07 08:45:00,
2013-09-07 01:50:00,60.5,48.3,29.83,WNW,295,0.0,0.0,64,0.00,,---,0.00,VWS V14.01,2013-09-07 08:50:00,
2013-09-07 01:55:00,60.4,48.2,29.83,WNW,295,0.0,0.0,64,0.00,,---,0.00,VWS V14.01,2013-09-07 08:55:00,
2013-09-07 02:00:00,60.3,48.9,29.83,WNW,295,0.0,0.0,66,0.00,,---,0.00,VWS V14.01,2013-09-07 09:00:00,
2013-09-07 02:05:00,60.1,49.1,29.83,WNW,295,0.0,0.0,67,0.00,,---,0.00,VWS V14.01,2013-09-07 09:05:00,
2013-09-07 02:10:00,59.9,48.5,29.82,WNW,295,0.0,0.0,66,0.00,,---,0.00,VWS V14.01,2013-09-07 09:10:00,
2013-09-07 02:15:00,59.7,48.3,29.82,WNW,295,0.0,0.0,66,0.00,,---,0.00,VWS V14.01,2013-09-07 09:15:00,
2013-09-07 02:20:00,59.5,47.7,29.83,WNW,295,0.0,0.0,65,0.00,,---,0.00,VWS V14.01,2013-09-07 09:20:00,
2013-09-07 02:25:00,59.4,48.0,29.83,WNW,295,0.0,0.0,66,0.00,,---,0.00,VWS V14.01,2013-09-07 09:25:00,
2013-09-07 02:30:00,59.2,48.7,29.83,WNW,295,0.0,0.0,68,0.00,,---,0.00,VWS V14.01,2013-09-07 09:30:00,
2013-09-07 02:35:00,59.0,48.1,29.83,WNW,295,0.0,0.0,67,0.00,,---,0.00,VWS V14.01,2013-09-07 09:35:00,
2013-09-07 02:40:00,59.0,48.1,29.82,WNW,295,0.0,0.0,67,0.00,,---,0.00,VWS V14.01,2013-09-07 09:40:00,
2013-09-07 02:45:00,59.0,48.1,29.82,WNW,295,0.0,0.0,67,0.00,,---,0.00,VWS V14.01,2013-09-07 09:45:00,
2013-09-07 02:50:00,59.0,48.1,29.82,WNW,295,0.0,0.0,67,0.00,,---,0.00,VWS V14.01,2013-09-07 09:50:00,
2013-09-07 02:55:00,58.9,48.4,29.83,WNW,295,0.0,0.0,68,0.00,,---,0.00,VWS V14.01,2013-09-07 09:55:00,
2013-09-07 03:00:00,58.7,47.8,29.83,WNW,295,0.0,0.0,67,0.00,,---,0.00,VWS V14.01,2013-09-07 10:00:00,
2013-09-07 03:05:00,58.7,48.2,29.83,WNW,295,0.0,0.0,68,0.00,,---,0.00,VWS V14.01,2013-09-07 10:05:00,
2013-09-07 03:10:00,58.7,47.8,29.83,WNW,295,0.0,0.0,67,0.00,,---,0.00,VWS V14.01,2013-09-07 10:10:00,
2013-09-07 03:15:00,58.6,48.1,29.83,WNW,295,0.0,0.0,68,0.00,,---,0.00,VWS V14.01,2013-09-07 10:15:00,
2013-09-07 03:20:00,58.5,48.0,29.83,WNW,295,0.0,0.0,68,0.00,,---,0.00,VWS V14.01,2013-09-07 10:20:00,
2013-09-07 03:25:00,58.4,47.9,29.83,WNW,295,0.0,0.0,68,0.00,,---,0.00,VWS V14.01,2013-09-07 10:25:00,
2013-09-07 03:30:00,58.3,47.8,29.83,WNW,295,0.0,0.0,68,0.00,,---,0.00,VWS V14.01,2013-09-07 10:30:00,
2013-09-07 03:35:00,58.2,47.7,29.82,WNW,295,0.0,0.0,68,0.00,,---,0.00,VWS V14.01,2013-09-07 10:35:00,
2013-09-07 03:40:00,58.0,47.5,29.82,WNW,295,0.0,0.0,68,0.00,,---,0.00,VWS V14.01,2013-09-07 10:40:00,
2013-09-07 03:45:00,57.9,47.8,29.82,WNW,295,0.0,0.0,69,0.00,,---,0.00,VWS V14.01,2013-09-07 10:45:00,
2013-09-07 03:50:00,57.7,47.6,29.82,WNW,295,0.0,0.0,69,0.00,,---,0.00,VWS V14.01,2013-09-07 10:50:00,
2013-09-07 03:55:00,57.6,47.5,29.82,WNW,295,0.0,0.0,69,0.00,,---,0.00,VWS V14.01,2013-09-07 10:55:00,
2013-09-07 04:00:00,57.5,47.8,29.82,WNW,295,0.0,0.0,70,0.00,,---,0.00,VWS V14.01,2013-09-07 11:00:00,
2013-09-07 04:05:00,57.4,47.7,29.82,WNW,295,0.0,0.0,70,0.00,,---,0.00,VWS V14.01,2013-09-07 11:05:00,
2013-09-07 04:10:00,57.4,48.1,29.82,WNW,295,0.0,0.0,71,0.00,,---,0.00,VWS V14.01,2013-09-07 11:10:00,
2013-09-07 04:15:00,57.4,48.1,29.82,WNW,295,0.0,0.0,71,0.00,,---,0.00,VWS V14.01,2013-09-07 11:15:00,
2013-09-07 04:20:00,57.4,48.1,29.82,WNW,295,0.0,0.0,71,0.00,,---,0.00,VWS V14.01,2013-09-07 11:20:00,
2013-09-07 04:25:00,57.3,48.0,29.82,WNW,295,0.0,0.0,71,0.00,,---,0.00,VWS V14.01,2013-09-07 11:25:00,
2013-09-07 04:30:00,57.2,48.3,29.82,WNW,295,0.0,0.0,72,0.00,,---,0.00,VWS V14.01,2013-09-07 11:30:00,
2013-09-07 04:35:00,57.1,48.2,29.82,WNW,295,0.0,0.0,72,0.00,,---,0.00,VWS V14.01,2013-09-07 11:35:00,
2013-09-07 04:40:00,56.9,48.0,29.82,WNW,295,0.0,0.0,72,0.00,,---,0.00,VWS V14.01,2013-09-07 11:40:00,
2013-09-07 04:45:00,56.9,48.3,29.82,WNW,295,0.0,0.0,73,0.00,,---,0.00,VWS V14.01,2013-09-07 11:45:00,
2013-09-07 04:50:00,56.9,48.3,29.82,WNW,295,0.0,0.0,73,0.00,,---,0.00,VWS V14.01,2013-09-07 11:50:00,
2013-09-07 04:55:00,56.8,48.2,29.82,WNW,295,0.0,0.0,73,0.00,,---,0.00,VWS V14.01,2013-09-07 11:55:00,
2013-09-07 05:00:00,56.8,48.2,29.82,WNW,295,0.0,0.0,73,0.00,,---,0.00,VWS V14.01,2013-09-07 12:00:00,
2013-09-07 05:05:00,56.7,47.8,29.82,WNW,295,0.0,0.0,72,0.00,,---,0.00,VWS V14.01,2013-09-07 12:05:00,
2013-09-07 05:10:00,56.6,48.1,29.82,WNW,295,0.0,0.0,73,0.00,,---,0.00,VWS V14.01,2013-09-07 12:10:00,
2013-09-07 05:15:00,56.6,48.1,29.82,WNW,295,0.0,0.0,73,0.00,,---,0.00,VWS V14.01,2013-09-07 12:15:00,
2013-09-07 05:20:00,56.5,48.0,29.82,WNW,295,0.0,0.0,73,0.00,,---,0.00,VWS V14.01,2013-09-07 12:20:00,
2013-09-07 05:25:00,56.4,48.2,29.82,WNW,295,0.0,0.0,74,0.00,,---,0.00,VWS V14.01,2013-09-07 12:25:00,
2013-09-07 05:30:00,56.3,48.1,29.83,WNW,295,0.0,0.0,74,0.00,,---,0.00,VWS V14.01,2013-09-07 12:30:00,
2013-09-07 05:35:00,56.2,48.0,29.83,WNW,295,0.0,0.0,74,0.00,,---,0.00,VWS V14.01,2013-09-07 12:35:00,
2013-09-07 05:40:00,56.2,48.0,29.83,WNW,295,0.0,0.0,74,0.00,,---,0.00,VWS V14.01,2013-09-07 12:40:00,
2013-09-07 05:45:00,56.1,47.9,29.83,WNW,295,0.0,0.0,74,0.00,,---,0.00,VWS V14.01,2013-09-07 12:45:00,
2013-09-07 05:50:00,56.0,47.8,29.83,WNW,295,0.0,0.0,74,0.00,,---,0.00,VWS V14.01,2013-09-07 12:50:00,
2013-09-07 05:55:00,55.9,47.7,29.83,WNW,295,0.0,0.0,74,0.00,,---,0.00,VWS V14.01,2013-09-07 12:55:00,
2013-09-07 06:00:00,55.8,47.7,29.83,WNW,295,0.0,0.0,74,0.00,,---,0.00,VWS V14.01,2013-09-07 13:00:00,
2013-09-07 06:05:00,55.7,47.5,29.83,WNW,295,0.0,0.0,74,0.00,,---,0.00,VWS V14.01,2013-09-07 13:05:00,
2013-09-07 06:10:00,55.7,47.9,29.83,WNW,295,0.0,0.0,75,0.00,,---,0.00,VWS V14.01,2013-09-07 13:10:00,
2013-09-07 06:15:00,55.6,47.8,29.83,WNW,295,0.0,0.0,75,0.00,,---,0.00,VWS V14.01,2013-09-07 13:15:00,
2013-09-07 06:20:00,55.5,47.7,29.83,WNW,295,0.0,0.0,75,0.00,,---,0.00,VWS V14.01,2013-09-07 13:20:00,
2013-09-07 06:25:00,55.5,47.7,29.83,WNW,295,0.0,0.0,75,0.00,,---,0.00,VWS V14.01,2013-09-07 13:25:00,
2013-09-07 06:30:00,55.4,47.6,29.83,WNW,295,0.0,0.0,75,0.00,,---,0.00,VWS V14.01,2013-09-07 13:30:00,
2013-09-07 06:35:00,55.4,47.6,29.84,WNW,295,0.0,0.0,75,0.00,,---,0.00,VWS V14.01,2013-09-07 13:35:00,
2013-09-07 06:40:00,55.4,48.0,29.84,WNW,295,0.0,0.0,76,0.00,,---,0.00,VWS V14.01,2013-09-07 13:40:00,
2013-09-07 06:45:00,55.3,47.9,29.84,WNW,295,0.0,0.0,76,0.00,,---,0.00,VWS V14.01,2013-09-07 13:45:00,
2013-09-07 06:50:00,55.3,47.9,29.84,WNW,295,0.0,0.0,76,0.00,,---,0.00,VWS V14.01,2013-09-07 13:50:00,
2013-09-07 06:55:00,55.3,48.2,29.84,WNW,295,0.0,0.0,77,0.00,,---,0.00,VWS V14.01,2013-09-07 13:55:00,
2013-09-07 07:00:00,55.2,48.1,29.84,WNW,295,0.0,0.0,77,0.00,,---,0.00,VWS V14.01,2013-09-07 14:00:00,
2013-09-07 07:05:00,55.3,48.6,29.84,WNW,295,0.0,0.0,78,0.00,,---,0.00,VWS V14.01,2013-09-07 14:05:00,
2013-09-07 07:10:00,55.7,49.0,29.84,WNW,295,0.0,0.0,78,0.00,,---,0.00,VWS V14.01,2013-09-07 14:10:00,
2013-09-07 07:15:00,56.2,49.8,29.84,WNW,295,0.0,0.0,79,0.00,,---,0.00,VWS V14.01,2013-09-07 14:15:00,
2013-09-07 07:20:00,56.8,50.0,29.84,WNW,295,0.0,0.0,78,0.00,,---,0.00,VWS V14.01,2013-09-07 14:20:00,
2013-09-07 07:25:00,57.5,50.7,29.84,WNW,295,0.0,0.0,78,0.00,,---,0.00,VWS V14.01,2013-09-07 14:25:00,
2013-09-07 07:30:00,58.3,50.8,29.84,WNW,295,0.0,0.0,76,0.00,,---,0.00,VWS V14.01,2013-09-07 14:30:00,
2013-09-07 07:35:00,59.0,50.7,29.84,WNW,295,0.0,0.0,74,0.00,,---,0.00,VWS V14.01,2013-09-07 14:35:00,
2013-09-07 07:40:00,60.2,51.2,29.84,WNW,295,0.0,0.0,72,0.00,,---,0.00,VWS V14.01,2013-09-07 14:40:00,
2013-09-07 07:45:00,61.4,51.9,29.85,WNW,295,0.0,0.0,71,0.00,,---,0.00,VWS V14.01,2013-09-07 14:45:00,
2013-09-07 07:50:00,62.4,51.7,29.85,WNW,295,0.0,0.0,68,0.00,,---,0.00,VWS V14.01,2013-09-07 14:50:00,
2013-09-07 07:55:00,63.1,52.0,29.85,WNW,295,0.0,0.0,67,0.00,,---,0.00,VWS V14.01,2013-09-07 14:55:00,
2013-09-07 08:00:00,64.1,52.5,29.85,WNW,295,0.0,0.0,66,0.00,,---,0.00,VWS V14.01,2013-09-07 15:00:00,
2013-09-07 08:05:00,65.3,52.8,29.85,WNW,295,0.0,0.0,64,0.00,,---,0.00,VWS V14.01,2013-09-07 15:05:00,
2013-09-07 08:10:00,66.5,53.1,29.85,WNW,295,0.0,0.0,62,0.00,,---,0.00,VWS V14.01,2013-09-07 15:10:00,
2013-09-07 08:15:00,67.6,52.8,29.85,WNW,295,0.0,0.0,59,0.00,,---,0.00,VWS V14.01,2013-09-07 15:15:00,
2013-09-07 08:20:00,68.8,53.0,29.85,East,82,0.0,0.0,57,0.00,,---,0.00,VWS V14.01,2013-09-07 15:20:00,
2013-09-07 08:25:00,69.7,52.8,29.85,East,82,0.0,1.0,55,0.00,,---,0.00,VWS V14.01,2013-09-07 15:25:00,
2013-09-07 08:30:00,70.3,53.4,29.86,East,82,0.0,1.0,55,0.00,,---,0.00,VWS V14.01,2013-09-07 15:30:00,
2013-09-07 08:35:00,71.0,52.5,29.86,East,94,0.0,1.0,52,0.00,,---,0.00,VWS V14.01,2013-09-07 15:35:00,
2013-09-07 08:40:00,71.7,52.1,29.86,East,94,0.0,1.0,50,0.00,,---,0.00,VWS V14.01,2013-09-07 15:40:00,
2013-09-07 08:45:00,72.3,52.6,29.86,East,94,0.0,0.0,50,0.00,,---,0.00,VWS V14.01,2013-09-07 15:45:00,
2013-09-07 08:50:00,73.1,52.8,29.85,East,94,0.0,0.0,49,0.00,,---,0.00,VWS V14.01,2013-09-07 15:50:00,
2013-09-07 08:55:00,73.9,53.0,29.86,East,94,0.0,0.0,48,0.00,,---,0.00,VWS V14.01,2013-09-07 15:55:00,
2013-09-07 09:00:00,74.9,52.2,29.86,East,94,0.0,0.0,45,0.00,,---,0.00,VWS V14.01,2013-09-07 16:00:00,
2013-09-07 09:05:00,75.9,51.2,29.86,East,94,0.0,1.0,42,0.00,,---,0.00,VWS V14.01,2013-09-07 16:05:00,
2013-09-07 09:10:00,76.9,50.8,29.86,East,94,0.0,1.0,40,0.00,,---,0.00,VWS V14.01,2013-09-07 16:10:00,
2013-09-07 09:15:00,77.7,50.1,29.86,East,91,0.0,2.0,38,0.00,,---,0.00,VWS V14.01,2013-09-07 16:15:00,
2013-09-07 09:20:00,78.0,48.9,29.86,East,88,0.0,2.0,36,0.00,,---,0.00,VWS V14.01,2013-09-07 16:20:00,
2013-09-07 09:25:00,78.7,49.5,29.86,ENE,69,0.0,1.0,36,0.00,,---,0.00,VWS V14.01,2013-09-07 16:25:00,
2013-09-07 09:30:00,79.3,50.1,29.86,East,80,1.0,1.0,36,0.00,,---,0.00,VWS V14.01,2013-09-07 16:30:00,
2013-09-07 09:35:00,80.2,49.3,29.86,East,82,1.0,1.0,34,0.00,,---,0.00,VWS V14.01,2013-09-07 16:35:00,
2013-09-07 09:40:00,80.7,50.5,29.86,East,82,0.0,1.0,35,0.00,,---,0.00,VWS V14.01,2013-09-07 16:40:00,
2013-09-07 09:45:00,81.3,50.3,29.86,East,82,0.0,1.0,34,0.00,,---,0.00,VWS V14.01,2013-09-07 16:45:00,
2013-09-07 09:50:00,82.0,50.9,29.86,East,82,0.0,1.0,34,0.00,,---,0.00,VWS V14.01,2013-09-07 16:50:00,
2013-09-07 09:55:00,82.5,50.5,29.86,East,82,0.0,1.0,33,0.00,,---,0.00,VWS V14.01,2013-09-07 16:55:00,
2013-09-07 10:00:00,83.2,51.1,29.86,East,82,0.0,1.0,33,0.00,,---,0.00,VWS V14.01,2013-09-07 17:00:00,
2013-09-07 10:05:00,83.7,51.6,29.86,NE,49,0.0,2.0,33,0.00,,---,0.00,VWS V14.01,2013-09-07 17:05:00,
2013-09-07 10:10:00,84.0,51.8,29.86,NE,49,0.0,2.0,33,0.00,,---,0.00,VWS V14.01,2013-09-07 17:10:00,
2013-09-07 10:15:00,84.3,52.9,29.85,NE,49,0.0,1.0,34,0.00,,---,0.00,VWS V14.01,2013-09-07 17:15:00,
2013-09-07 10:20:00,85.0,52.7,29.85,NE,49,0.0,1.0,33,0.00,,---,0.00,VWS V14.01,2013-09-07 17:20:00,
2013-09-07 10:25:00,85.3,52.1,29.85,West,281,0.0,3.0,32,0.00,,---,0.00,VWS V14.01,2013-09-07 17:25:00,
2013-09-07 10:30:00,85.6,51.5,29.85,North,9,0.0,3.0,31,0.00,,---,0.00,VWS V14.01,2013-09-07 17:30:00,
2013-09-07 10:35:00,86.0,51.0,29.85,WSW,248,0.0,3.0,30,0.00,,---,0.00,VWS V14.01,2013-09-07 17:35:00,
2013-09-07 10:40:00,85.9,50.9,29.85,North,355,0.0,3.0,30,0.00,,---,0.00,VWS V14.01,2013-09-07 17:40:00,
2013-09-07 10:45:00,86.4,51.3,29.85,NW,311,1.0,1.0,30,0.00,,---,0.00,VWS V14.01,2013-09-07 17:45:00,
2013-09-07 10:50:00,86.7,51.6,29.85,NNW,342,2.0,3.0,30,0.00,,---,0.00,VWS V14.01,2013-09-07 17:50:00,
2013-09-07 10:55:00,87.1,51.0,29.85,West,267,1.0,4.0,29,0.00,,---,0.00,VWS V14.01,2013-09-07 17:55:00,
2013-09-07 11:00:00,87.1,51.0,29.85,NW,304,0.0,4.0,29,0.00,,---,0.00,VWS V14.01,2013-09-07 18:00:00,
2013-09-07 11:05:00,87.3,51.2,29.85,WSW,244,0.0,4.0,29,0.00,,---,0.00,VWS V14.01,2013-09-07 18:05:00,
2013-09-07 11:10:00,87.9,51.7,29.85,NW,313,1.0,4.0,29,0.00,,---,0.00,VWS V14.01,2013-09-07 18:10:00,
2013-09-07 11:15:00,88.4,51.2,29.85,NW,311,1.0,3.0,28,0.00,,---,0.00,VWS V14.01,2013-09-07 18:15:00,
2013-09-07 11:20:00,88.6,50.4,29.85,WNW,288,0.0,5.0,27,0.00,,---,0.00,VWS V14.01,2013-09-07 18:20:00,
2013-09-07 11:25:00,88.7,50.5,29.84,SW,227,0.0,4.0,27,0.00,,---,0.00,VWS V14.01,2013-09-07 18:25:00,
2013-09-07 11:30:00,89.0,50.7,29.84,NW,322,0.0,4.0,27,0.00,,---,0.00,VWS V14.01,2013-09-07 18:30:00,
2013-09-07 11:35:00,89.6,50.2,29.84,NNW,333,3.0,4.0,26,0.00,,---,0.00,VWS V14.01,2013-09-07 18:35:00,
2013-09-07 11:40:00,90.0,49.5,29.84,NW,308,3.0,6.0,25,0.00,,---,0.00,VWS V14.01,2013-09-07 18:40:00,
2013-09-07 11:45:00,90.3,50.8,29.84,WNW,288,0.0,5.0,26,0.00,,---,0.00,VWS V14.01,2013-09-07 18:45:00,
2013-09-07 11:50:00,91.0,51.4,29.84,WNW,298,0.0,5.0,26,0.00,,---,0.00,VWS V14.01,2013-09-07 18:50:00,
2013-09-07 11:55:00,91.4,50.7,29.84,NNE,15,0.0,3.0,25,0.00,,---,0.00,VWS V14.01,2013-09-07 18:55:00,
2013-09-07 12:00:00,91.8,51.0,29.84,NNE,13,0.0,4.0,25,0.00,,---,0.00,VWS V14.01,2013-09-07 19:00:00,
2013-09-07 12:05:00,92.1,51.3,29.84,SSW,212,0.0,5.0,25,0.00,,---,0.00,VWS V14.01,2013-09-07 19:05:00,
2013-09-07 12:10:00,91.8,49.9,29.84,NNW,336,2.0,5.0,24,0.00,,---,0.00,VWS V14.01,2013-09-07 19:10:00,
2013-09-07 12:15:00,92.2,50.2,29.83,NNW,340,0.0,3.0,24,0.00,,---,0.00,VWS V14.01,2013-09-07 19:15:00,
2013-09-07 12:20:00,92.6,50.6,29.83,NNE,26,3.0,5.0,24,0.00,,---,0.00,VWS V14.01,2013-09-07 19:20:00,
2013-09-07 12:25:00,93.1,49.8,29.83,WSW,252,2.0,6.0,23,0.00,,---,0.00,VWS V14.01,2013-09-07 19:25:00,
2013-09-07 12:30:00,92.6,48.2,29.83,West,273,2.0,6.0,22,0.00,,---,0.00,VWS V14.01,2013-09-07 19:30:00,
2013-09-07 12:35:00,92.8,48.4,29.83,North,360,2.0,6.0,22,0.00,,---,0.00,VWS V14.01,2013-09-07 19:35:00,
2013-09-07 12:40:00,93.3,48.8,29.83,NNE,24,1.0,6.0,22,0.00,,---,0.00,VWS V14.01,2013-09-07 19:40:00,
2013-09-07 12:45:00,93.6,47.8,29.82,NNE,22,0.0,4.0,21,0.00,,---,0.00,VWS V14.01,2013-09-07 19:45:00,
2013-09-07 12:50:00,93.8,49.2,29.82,NNW,338,5.0,6.0,22,0.00,,---,0.00,VWS V14.01,2013-09-07 19:50:00,
2013-09-07 12:55:00,93.8,49.2,29.82,NW,311,2.0,5.0,22,0.00,,---,0.00,VWS V14.01,2013-09-07 19:55:00,
2013-09-07 13:00:00,94.0,48.2,29.82,WNW,296,0.0,5.0,21,0.00,,---,0.00,VWS V14.01,2013-09-07 20:00:00,
2013-09-07 13:05:00,94.4,48.5,29.82,SW,215,3.0,6.0,21,0.00,,---,0.00,VWS V14.01,2013-09-07 20:05:00,
2013-09-07 13:10:00,94.6,49.9,29.82,NNW,338,0.0,6.0,22,0.00,,---,0.00,VWS V14.01,2013-09-07 20:10:00,
2013-09-07 13:15:00,95.0,49.0,29.82,NE,36,2.0,7.0,21,0.00,,---,0.00,VWS V14.01,2013-09-07 20:15:00,
2013-09-07 13:20:00,95.1,50.3,29.82,West,259,1.0,7.0,22,0.00,,---,0.00,VWS V14.01,2013-09-07 20:20:00,
2013-09-07 13:25:00,95.0,47.7,29.82,WNW,284,0.0,3.0,20,0.00,,---,0.00,VWS V14.01,2013-09-07 20:25:00,
2013-09-07 13:30:00,94.9,48.9,29.82,WSW,246,0.0,3.0,21,0.00,,---,0.00,VWS V14.01,2013-09-07 20:30:00,
2013-09-07 13:35:00,94.8,48.8,29.81,SSW,213,1.0,4.0,21,0.00,,---,0.00,VWS V14.01,2013-09-07 20:35:00,
2013-09-07 13:40:00,94.7,48.7,29.81,NE,34,0.0,4.0,21,0.00,,---,0.00,VWS V14.01,2013-09-07 20:40:00,
2013-09-07 13:45:00,95.0,49.0,29.81,West,259,1.0,2.0,21,0.00,,---,0.00,VWS V14.01,2013-09-07 20:45:00,
2013-09-07 13:50:00,95.0,47.7,29.81,West,263,0.0,6.0,20,0.00,,---,0.00,VWS V14.01,2013-09-07 20:50:00,
2013-09-07 13:55:00,94.7,48.7,29.80,West,275,1.0,3.0,21,0.00,,---,0.00,VWS V14.01,2013-09-07 20:55:00,
2013-09-07 14:00:00,95.0,47.7,29.80,NW,311,0.0,6.0,20,0.00,,---,0.00,VWS V14.01,2013-09-07 21:00:00,
2013-09-07 14:05:00,95.3,49.2,29.80,North,5,0.0,2.0,21,0.00,,---,0.00,VWS V14.01,2013-09-07 21:05:00,
2013-09-07 14:10:00,95.6,49.5,29.79,NNW,333,2.0,7.0,21,0.00,,---,0.00,VWS V14.01,2013-09-07 21:10:00,
2013-09-07 14:15:00,95.3,47.9,29.80,WNW,284,3.0,5.0,20,0.00,,---,0.00,VWS V14.01,2013-09-07 21:15:00,
2013-09-07 14:20:00,94.7,47.4,29.79,WNW,285,0.0,5.0,20,0.00,,---,0.00,VWS V14.01,2013-09-07 21:20:00,
2013-09-07 14:25:00,94.9,47.6,29.79,NW,307,1.0,4.0,20,0.00,,---,0.00,VWS V14.01,2013-09-07 21:25:00,
2013-09-07 14:30:00,95.3,47.9,29.79,ENE,78,0.0,4.0,20,0.00,,---,0.00,VWS V14.01,2013-09-07 21:30:00,
2013-09-07 14:35:00,95.6,48.2,29.79,West,259,0.0,3.0,20,0.00,,---,0.00,VWS V14.01,2013-09-07 21:35:00,
2013-09-07 14:40:00,95.9,48.4,29.79,East,94,0.0,3.0,20,0.00,,---,0.00,VWS V14.01,2013-09-07 21:40:00,
2013-09-07 14:45:00,96.1,48.6,29.78,NNE,27,0.0,7.0,20,0.00,,---,0.00,VWS V14.01,2013-09-07 21:45:00,
2013-09-07 14:50:00,96.2,48.7,29.78,ESE,107,0.0,7.0,20,0.00,,---,0.00,VWS V14.01,2013-09-07 21:50:00,
2013-09-07 14:55:00,96.5,48.9,29.78,WNW,289,0.0,3.0,20,0.00,,---,0.00,VWS V14.01,2013-09-07 21:55:00,
2013-09-07 15:00:00,96.7,49.1,29.78,WNW,301,3.0,6.0,20,0.00,,---,0.00,VWS V14.01,2013-09-07 22:00:00,
2013-09-07 15:05:00,96.6,47.6,29.78,West,269,1.0,6.0,19,0.00,,---,0.00,VWS V14.01,2013-09-07 22:05:00,
2013-09-07 15:10:00,96.3,48.8,29.78,North,9,0.0,6.0,20,0.00,,---,0.00,VWS V14.01,2013-09-07 22:10:00,
2013-09-07 15:15:00,96.3,48.8,29.78,NW,326,0.0,4.0,20,0.00,,---,0.00,VWS V14.01,2013-09-07 22:15:00,
2013-09-07 15:20:00,96.7,49.1,29.78,ENE,76,1.0,4.0,20,0.00,,---,0.00,VWS V14.01,2013-09-07 22:20:00,
2013-09-07 15:25:00,96.9,47.9,29.78,NW,306,2.0,3.0,19,0.00,,---,0.00,VWS V14.01,2013-09-07 22:25:00,
2013-09-07 15:30:00,96.8,47.8,29.78,NE,56,0.0,3.0,19,0.00,,---,0.00,VWS V14.01,2013-09-07 22:30:00,
2013-09-07 15:35:00,97.0,48.0,29.78,NE,34,0.0,4.0,19,0.00,,---,0.00,VWS V14.01,2013-09-07 22:35:00,
2013-09-07 15:40:00,97.1,48.0,29.78,North,5,0.0,4.0,19,0.00,,---,0.00,VWS V14.01,2013-09-07 22:40:00,
2013-09-07 15:45:00,97.0,49.3,29.78,NE,46,2.0,2.0,20,0.00,,---,0.00,VWS V14.01,2013-09-07 22:45:00,
2013-09-07 15:50:00,97.2,48.1,29.77,NE,51,0.0,4.0,19,0.00,,---,0.00,VWS V14.01,2013-09-07 22:50:00,
2013-09-07 15:55:00,97.5,49.7,29.77,NE,55,0.0,1.0,20,0.00,,---,0.00,VWS V14.01,2013-09-07 22:55:00,
2013-09-07 16:00:00,97.8,48.6,29.77,North,360,2.0,2.0,19,0.00,,---,0.00,VWS V14.01,2013-09-07 23:00:00,
2013-09-07 16:05:00,97.8,50.0,29.77,NE,50,2.0,6.0,20,0.00,,---,0.00,VWS V14.01,2013-09-07 23:05:00,
2013-09-07 16:10:00,97.4,51.0,29.77,North,349,6.0,6.0,21,0.00,,---,0.00,VWS V14.01,2013-09-07 23:10:00,
2013-09-07 16:15:00,97.2,50.8,29.77,WNW,291,0.0,3.0,21,0.00,,---,0.00,VWS V14.01,2013-09-07 23:15:00,
2013-09-07 16:20:00,97.3,52.1,29.76,WNW,300,1.0,5.0,22,0.00,,---,0.00,VWS V14.01,2013-09-07 23:20:00,
2013-09-07 16:25:00,97.1,50.7,29.76,NW,317,1.0,5.0,21,0.00,,---,0.00,VWS V14.01,2013-09-07 23:25:00,
2013-09-07 16:30:00,96.8,50.5,29.76,NNW,345,0.0,6.0,21,0.00,,---,0.00,VWS V14.01,2013-09-07 23:30:00,
2013-09-07 16:35:00,96.8,50.5,29.76,ENE,63,0.0,9.0,21,0.00,,---,0.00,VWS V14.01,2013-09-07 23:35:00,
2013-09-07 16:40:00,96.8,50.5,29.76,West,273,0.0,9.0,21,0.00,,---,0.00,VWS V14.01,2013-09-07 23:40:00,
2013-09-07 16:45:00,96.6,51.6,29.76,West,271,2.0,2.0,22,0.00,,---,0.00,VWS V14.01,2013-09-07 23:45:00,
2013-09-07 16:50:00,96.4,50.1,29.76,WSW,254,0.0,5.0,21,0.00,,---,0.00,VWS V14.01,2013-09-07 23:50:00,
2013-09-07 16:55:00,96.2,51.2,29.76,West,267,1.0,5.0,22,0.00,,---,0.00,VWS V14.01,2013-09-07 23:55:00,
2013-09-07 17:00:00,96.0,49.8,29.76,NW,317,0.0,5.0,21,0.00,,---,0.00,VWS V14.01,2013-09-08 00:00:00,
2013-09-07 17:05:00,95.8,50.9,29.76,West,259,1.0,2.0,22,0.00,,---,0.00,VWS V14.01,2013-09-08 00:05:00,
2013-09-07 17:10:00,95.7,50.8,29.76,SSW,194,0.0,4.0,22,0.00,,---,0.00,VWS V14.01,2013-09-08 00:10:00,
2013-09-07 17:15:00,95.7,50.8,29.76,West,267,0.0,3.0,22,0.00,,---,0.00,VWS V14.01,2013-09-08 00:15:00,
2013-09-07 17:20:00,95.7,49.6,29.76,West,263,0.0,4.0,21,0.00,,---,0.00,VWS V14.01,2013-09-08 00:20:00,
2013-09-07 17:25:00,95.5,49.4,29.77,WNW,293,0.0,3.0,21,0.00,,---,0.00,VWS V14.01,2013-09-08 00:25:00,
2013-09-07 17:30:00,95.3,50.5,29.77,WSW,257,0.0,5.0,22,0.00,,---,0.00,VWS V14.01,2013-09-08 00:30:00,
2013-09-07 17:35:00,95.1,50.3,29.76,WNW,287,0.0,6.0,22,0.00,,---,0.00,VWS V14.01,2013-09-08 00:35:00,
2013-09-07 17:40:00,94.8,48.8,29.76,WSW,254,1.0,6.0,21,0.00,,---,0.00,VWS V14.01,2013-09-08 00:40:00,
2013-09-07 17:45:00,94.6,49.9,29.77,WSW,241,1.0,2.0,22,0.00,,---,0.00,VWS V14.01,2013-09-08 00:45:00,
2013-09-07 17:50:00,94.5,49.8,29.77,WNW,286,2.0,2.0,22,0.00,,---,0.00,VWS V14.01,2013-09-08 00:50:00,
2013-09-07 17:55:00,94.4,49.7,29.77,West,273,0.0,4.0,22,0.00,,---,0.00,VWS V14.01,2013-09-08 00:55:00,
2013-09-07 18:00:00,94.1,49.5,29.77,North,355,0.0,4.0,22,0.00,,---,0.00,VWS V14.01,2013-09-08 01:00:00,
2013-09-07 18:05:00,93.4,48.9,29.77,SW,231,0.0,5.0,22,0.00,,---,0.00,VWS V14.01,2013-09-08 01:05:00,
2013-09-07 18:10:00,92.7,49.5,29.77,NW,311,0.0,5.0,23,0.00,,---,0.00,VWS V14.01,2013-09-08 01:10:00,
2013-09-07 18:15:00,92.0,48.9,29.77,West,273,2.0,5.0,23,0.00,,---,0.00,VWS V14.01,2013-09-08 01:15:00,
2013-09-07 18:20:00,91.2,48.3,29.77,NNE,13,0.0,5.0,23,0.00,,---,0.00,VWS V14.01,2013-09-08 01:20:00,
2013-09-07 18:25:00,90.6,48.9,29.77,NNW,334,0.0,3.0,24,0.00,,---,0.00,VWS V14.01,2013-09-08 01:25:00,
2013-09-07 18:30:00,90.1,48.5,29.77,NNW,336,0.0,4.0,24,0.00,,---,0.00,VWS V14.01,2013-09-08 01:30:00,
2013-09-07 18:35:00,89.7,49.2,29.77,NNW,336,0.0,0.0,25,0.00,,---,0.00,VWS V14.01,2013-09-08 01:35:00,
2013-09-07 18:40:00,89.2,49.9,29.77,NNW,336,0.0,0.0,26,0.00,,---,0.00,VWS V14.01,2013-09-08 01:40:00,
2013-09-07 18:45:00,88.4,49.2,29.77,NNW,336,0.0,0.0,26,0.00,,---,0.00,VWS V14.01,2013-09-08 01:45:00,
2013-09-07 18:50:00,87.6,49.5,29.77,NNW,336,0.0,0.0,27,0.00,,---,0.00,VWS V14.01,2013-09-08 01:50:00,
2013-09-07 18:55:00,86.9,48.9,29.77,NNW,336,0.0,0.0,27,0.00,,---,0.00,VWS V14.01,2013-09-08 01:55:00,
2013-09-07 19:00:00,86.2,49.3,29.77,NNW,336,0.0,0.0,28,0.00,,---,0.00,VWS V14.01,2013-09-08 02:00:00,
2013-09-07 19:05:00,85.4,49.6,29.77,NNW,336,0.0,0.0,29,0.00,,---,0.00,VWS V14.01,2013-09-08 02:05:00,
2013-09-07 19:10:00,84.7,49.0,29.77,NNW,336,0.0,0.0,29,0.00,,---,0.00,VWS V14.01,2013-09-08 02:10:00,
2013-09-07 19:15:00,83.9,48.3,29.77,NNW,336,0.0,0.0,29,0.00,,---,0.00,VWS V14.01,2013-09-08 02:15:00,
2013-09-07 19:20:00,83.2,48.6,29.77,NNW,336,0.0,0.0,30,0.00,,---,0.00,VWS V14.01,2013-09-08 02:20:00,
2013-09-07 19:25:00,82.6,48.1,29.77,NNW,336,0.0,0.0,30,0.00,,---,0.00,VWS V14.01,2013-09-08 02:25:00,
2013-09-07 19:30:00,82.0,48.4,29.77,NNW,336,0.0,0.0,31,0.00,,---,0.00,VWS V14.01,2013-09-08 02:30:00,
2013-09-07 19:35:00,81.2,48.6,29.77,NNW,336,0.0,0.0,32,0.00,,---,0.00,VWS V14.01,2013-09-08 02:35:00,
2013-09-07 19:40:00,80.6,48.9,29.78,NNW,336,0.0,0.0,33,0.00,,---,0.00,VWS V14.01,2013-09-08 02:40:00,
2013-09-07 19:45:00,79.9,48.3,29.78,NNW,336,0.0,0.0,33,0.00,,---,0.00,VWS V14.01,2013-09-08 02:45:00,
2013-09-07 19:50:00,79.4,48.6,29.79,NNW,336,0.0,0.0,34,0.00,,---,0.00,VWS V14.01,2013-09-08 02:50:00,
2013-09-07 19:55:00,78.8,48.1,29.79,NNW,336,0.0,1.0,34,0.00,,---,0.00,VWS V14.01,2013-09-08 02:55:00,
2013-09-07 20:00:00,78.5,47.8,29.79,NNW,336,0.0,1.0,34,0.00,,---,0.00,VWS V14.01,2013-09-08 03:00:00,
2013-09-07 20:05:00,78.1,48.2,29.79,NNW,336,0.0,0.0,35,0.00,,---,0.00,VWS V14.01,2013-09-08 03:05:00,
2013-09-07 20:10:00,77.8,48.0,29.80,NNW,336,0.0,0.0,35,0.00,,---,0.00,VWS V14.01,2013-09-08 03:10:00,
2013-09-07 20:15:00,77.5,48.5,29.80,NNW,336,0.0,0.0,36,0.00,,---,0.00,VWS V14.01,2013-09-08 03:15:00,
2013-09-07 20:20:00,77.1,48.1,29.80,NNW,336,0.0,0.0,36,0.00,,---,0.00,VWS V14.01,2013-09-08 03:20:00,
2013-09-07 20:25:00,76.8,47.8,29.81,NNW,336,0.0,0.0,36,0.00,,---,0.00,VWS V14.01,2013-09-08 03:25:00,
2013-09-07 20:30:00,76.5,49.0,29.81,NNW,336,0.0,0.0,38,0.00,,---,0.00,VWS V14.01,2013-09-08 03:30:00,
2013-09-07 20:35:00,76.1,48.7,29.81,NNW,336,0.0,0.0,38,0.00,,---,0.00,VWS V14.01,2013-09-08 03:35:00,
2013-09-07 20:40:00,75.7,49.0,29.81,NNW,336,0.0,0.0,39,0.00,,---,0.00,VWS V14.01,2013-09-08 03:40:00,
2013-09-07 20:45:00,75.3,48.7,29.81,NNW,336,0.0,0.0,39,0.00,,---,0.00,VWS V14.01,2013-09-08 03:45:00,
2013-09-07 20:50:00,75.0,49.1,29.81,NNW,336,0.0,0.0,40,0.00,,---,0.00,VWS V14.01,2013-09-08 03:50:00,
2013-09-07 20:55:00,74.7,48.1,29.81,NNW,336,0.0,0.0,39,0.00,,---,0.00,VWS V14.01,2013-09-08 03:55:00,
2013-09-07 21:00:00,74.6,48.0,29.81,NNW,336,0.0,0.0,39,0.00,,---,0.00,VWS V14.01,2013-09-08 04:00:00,
2013-09-07 21:01:00,74.6,48.0,29.81,NNW,336,0.0,0.0,39,0.00,,---,0.00,VWS V14.01,2013-09-08 04:01:00,
2013-09-07 21:06:00,74.4,49.2,29.81,NNW,336,0.0,0.0,41,0.00,,---,0.00,VWS V14.01,2013-09-08 04:06:00,
2013-09-07 21:11:00,74.1,49.6,29.81,NNW,336,0.0,0.0,42,0.00,,---,0.00,VWS V14.01,2013-09-08 04:11:00,
2013-09-07 21:16:00,73.8,49.3,29.81,NNW,336,0.0,0.0,42,0.00,,---,0.00,VWS V14.01,2013-09-08 04:16:00,
2013-09-07 21:21:00,73.5,49.0,29.82,NNW,336,0.0,0.0,42,0.00,,---,0.00,VWS V14.01,2013-09-08 04:21:00,
2013-09-07 21:26:00,73.2,48.8,29.81,NNW,336,0.0,0.0,42,0.00,,---,0.00,VWS V14.01,2013-09-08 04:26:00,
2013-09-07 21:31:00,73.0,48.6,29.82,NNW,336,0.0,1.0,42,0.00,,---,0.00,VWS V14.01,2013-09-08 04:31:00,
2013-09-07 21:36:00,72.8,48.4,29.82,NNW,336,0.0,0.0,42,0.00,,---,0.00,VWS V14.01,2013-09-08 04:36:00,
2013-09-07 21:41:00,72.6,48.8,29.82,NNW,336,0.0,0.0,43,0.00,,---,0.00,VWS V14.01,2013-09-08 04:41:00,
2013-09-07 21:46:00,72.4,48.7,29.82,NNW,336,0.0,0.0,43,0.00,,---,0.00,VWS V14.01,2013-09-08 04:46:00,
2013-09-07 21:51:00,72.3,48.6,29.82,NNW,336,0.0,0.0,43,0.00,,---,0.00,VWS V14.01,2013-09-08 04:51:00,
2013-09-07 21:56:00,72.1,48.4,29.82,NNW,336,0.0,0.0,43,0.00,,---,0.00,VWS V14.01,2013-09-08 04:56:00,
2013-09-07 22:01:00,71.9,49.4,29.82,NNW,336,0.0,0.0,45,0.00,,---,0.00,VWS V14.01,2013-09-08 05:01:00,
2013-09-07 22:06:00,71.5,49.1,29.82,NNW,336,0.0,0.0,45,0.00,,---,0.00,VWS V14.01,2013-09-08 05:06:00,
2013-09-07 22:11:00,71.3,48.9,29.82,NNW,336,0.0,0.0,45,0.00,,---,0.00,VWS V14.01,2013-09-08 05:11:00,
2013-09-07 22:16:00,71.0,48.6,29.82,NNW,336,0.0,0.0,45,0.00,,---,0.00,VWS V14.01,2013-09-08 05:16:00,
2013-09-07 22:21:00,70.8,48.4,29.82,NNW,336,0.0,0.0,45,0.00,,---,0.00,VWS V14.01,2013-09-08 05:21:00,
2013-09-07 22:26:00,70.5,48.2,29.81,NNW,336,0.0,0.0,45,0.00,,---,0.00,VWS V14.01,2013-09-08 05:26:00,
2013-09-07 22:31:00,70.2,47.9,29.82,NNW,336,0.0,0.0,45,0.00,,---,0.00,VWS V14.01,2013-09-08 05:31:00,
2013-09-07 22:36:00,69.9,48.2,29.82,NNW,336,0.0,0.0,46,0.00,,---,0.00,VWS V14.01,2013-09-08 05:36:00,
2013-09-07 22:41:00,69.7,48.0,29.82,NNW,336,0.0,1.0,46,0.00,,---,0.00,VWS V14.01,2013-09-08 05:41:00,
2013-09-07 22:46:00,69.4,47.7,29.82,NNW,336,0.0,0.0,46,0.00,,---,0.00,VWS V14.01,2013-09-08 05:46:00,
2013-09-07 22:51:00,69.2,47.6,29.82,NNW,336,0.0,0.0,46,0.00,,---,0.00,VWS V14.01,2013-09-08 05:51:00,
2013-09-07 22:56:00,69.1,47.5,29.82,NNW,336,0.0,0.0,46,0.00,,---,0.00,VWS V14.01,2013-09-08 05:56:00,
2013-09-07 23:01:00,68.9,47.9,29.82,NNW,336,0.0,0.0,47,0.00,,---,0.00,VWS V14.01,2013-09-08 06:01:00,
2013-09-07 23:06:00,68.7,47.7,29.82,NNW,336,0.0,0.0,47,0.00,,---,0.00,VWS V14.01,2013-09-08 06:06:00,
2013-09-07 23:11:00,68.5,47.5,29.82,NNW,336,0.0,0.0,47,0.00,,---,0.00,VWS V14.01,2013-09-08 06:11:00,
2013-09-07 23:16:00,68.2,47.8,29.82,NNW,336,0.0,0.0,48,0.00,,---,0.00,VWS V14.01,2013-09-08 06:16:00,
2013-09-07 23:21:00,68.0,48.2,29.82,NNW,336,0.0,0.0,49,0.00,,---,0.00,VWS V14.01,2013-09-08 06:21:00,
2013-09-07 23:26:00,67.9,48.1,29.82,NNW,336,0.0,0.0,49,0.00,,---,0.00,VWS V14.01,2013-09-08 06:26:00,
2013-09-07 23:31:00,67.7,48.4,29.82,NNW,336,0.0,0.0,50,0.00,,---,0.00,VWS V14.01,2013-09-08 06:31:00,
2013-09-07 23:36:00,67.6,48.3,29.81,NNW,336,0.0,0.0,50,0.00,,---,0.00,VWS V14.01,2013-09-08 06:36:00,
2013-09-07 23:41:00,67.5,48.2,29.82,NNW,336,0.0,0.0,50,0.00,,---,0.00,VWS V14.01,2013-09-08 06:41:00,
2013-09-07 23:46:00,67.3,49.1,29.82,NNW,336,0.0,0.0,52,0.00,,---,0.00,VWS V14.01,2013-09-08 06:46:00,
2013-09-07 23:51:00,67.1,48.4,29.82,NNW,336,0.0,0.0,51,0.00,,---,0.00,VWS V14.01,2013-09-08 06:51:00,
2013-09-07 23:56:00,67.0,48.8,29.82,NNW,336,0.0,0.0,52,0.00,,---,0.00,VWS V14.01,2013-09-08 06:56:00,